When you browse on this site, cookies collect data to enhance your experience and personalize the content and advertising you see.
Visit our Privacy Policy to learn more. By continuing to use the site, you agree to this use of cookies and data.
  • In Lithuania
  • List of Countries
  • For 7 days
  • Water Temperature
  • Satellite Maps
  • Weather Map
  • Weather Widgets
  • user-avatar
    Login

    Hourly Weather Namibe

    Today, 22 July, Monday

    Time Temperature Precipitation Wind Pressure Humidity
    00:00 +20°C° 0 mm 4 mps 761 mmHg 87%
    01:00 +19°C° 0 mm 3 mps 761 mmHg 89%
    02:00 +19°C° 0 mm 4 mps 761 mmHg 90%
    03:00 +18°C° 0 mm 4 mps 761 mmHg 91%
    04:00 +18°C° 0 mm 4 mps 761 mmHg 93%
    05:00 +18°C° 0 mm 4 mps 761 mmHg 93%
    06:00 +18°C° 0 mm 3 mps 761 mmHg 93%
    07:00 +18°C° 0 mm 3 mps 761 mmHg 95%
    08:00 +20°C° 0 mm 3 mps 761 mmHg 85%
    09:00 +22°C° 0 mm 4 mps 761 mmHg 75%
    10:00 +25°C° 0 mm 4 mps 761 mmHg 65%
    11:00 +26°C° 0 mm 4 mps 761 mmHg 62%
    12:00 +27°C° 0 mm 5 mps 760 mmHg 59%
    13:00 +27°C° 0 mm 6 mps 759 mmHg 58%
    14:00 +26°C° 0 mm 6 mps 759 mmHg 62%
    15:00 +24°C° 0 mm 6 mps 758 mmHg 65%
    16:00 +23°C° 0 mm 6 mps 758 mmHg 69%
    17:00 +22°C° 0 mm 6 mps 758 mmHg 76%
    18:00 +20°C° 0 mm 5 mps 759 mmHg 83%
    19:00 +19°C° 0 mm 5 mps 759 mmHg 89%
    20:00 +19°C° 0 mm 5 mps 760 mmHg 89%
    21:00 +18°C° 0 mm 4 mps 761 mmHg 89%
    22:00 +18°C° 0 mm 4 mps 761 mmHg 88%
    23:00 +17°C° 0 mm 4 mps 761 mmHg 90%

    Tomorrow, 23 July, Tuesday

    Time Temperature Precipitation Wind Pressure Humidity
    00:00 +17°C° 0 mm 4 mps 761 mmHg 91%
    01:00 +15°C° 0 mm 4 mps 760 mmHg 92%
    02:00 +15°C° 0 mm 4 mps 760 mmHg 93%
    03:00 +15°C° 0 mm 4 mps 760 mmHg 94%
    04:00 +14°C° 0 mm 5 mps 760 mmHg 96%
    05:00 +14°C° 0 mm 4 mps 760 mmHg 95%
    06:00 +14°C° 0 mm 4 mps 760 mmHg 94%
    07:00 +14°C° 0 mm 3 mps 760 mmHg 94%
    08:00 +18°C° 0 mm 3 mps 761 mmHg 82%
    09:00 +20°C° 0 mm 4 mps 761 mmHg 71%
    10:00 +22°C° 0 mm 4 mps 761 mmHg 60%
    11:00 +25°C° 0 mm 4 mps 760 mmHg 54%
    12:00 +27°C° 0 mm 5 mps 760 mmHg 48%
    13:00 +29°C° 0 mm 5 mps 759 mmHg 43%
    14:00 +27°C° 0 mm 5 mps 758 mmHg 48%
    15:00 +26°C° 0 mm 6 mps 758 mmHg 53%
    16:00 +24°C° 0 mm 6 mps 757 mmHg 58%
    17:00 +22°C° 0 mm 5 mps 758 mmHg 66%
    18:00 +20°C° 0 mm 5 mps 758 mmHg 73%
    19:00 +19°C° 0 mm 5 mps 759 mmHg 81%
    20:00 +18°C° 0 mm 4 mps 759 mmHg 82%
    21:00 +17°C° 0 mm 4 mps 759 mmHg 84%
    22:00 +16°C° 0 mm 3 mps 760 mmHg 85%
    23:00 +16°C° 0 mm 3 mps 759 mmHg 85%

    Day after tomorrow, 24 July, Wednesday

    Time Temperature Precipitation Wind Pressure Humidity
    00:00 +16°C° 0 mm 3 mps 759 mmHg 85%
    01:00 +16°C° 0 mm 3 mps 758 mmHg 85%
    02:00 +16°C° 0 mm 2 mps 758 mmHg 85%
    03:00 +15°C° 0 mm 2 mps 758 mmHg 85%
    04:00 +15°C° 0 mm 2 mps 757 mmHg 85%
    05:00 +16°C° 0 mm 1 mps 757 mmHg 82%
    06:00 +16°C° 0 mm 1 mps 758 mmHg 79%
    07:00 +18°C° 0 mm 1 mps 758 mmHg 76%
    08:00 +21°C° 0 mm 1 mps 758 mmHg 63%
    09:00 +25°C° 0 mm 1 mps 758 mmHg 49%
    10:00 +29°C° 0 mm 1 mps 758 mmHg 35%
    11:00 +29°C° 0 mm 2 mps 758 mmHg 37%
    12:00 +29°C° 0 mm 3 mps 757 mmHg 38%
    13:00 +29°C° 0 mm 4 mps 757 mmHg 39%
    14:00 +28°C° 0 mm 4 mps 756 mmHg 43%
    15:00 +27°C° 0 mm 4 mps 756 mmHg 47%
    16:00 +26°C° 0 mm 4 mps 756 mmHg 51%
    17:00 +23°C° 0 mm 4 mps 757 mmHg 60%
    18:00 +21°C° 0 mm 3 mps 757 mmHg 70%
    19:00 +19°C° 0 mm 3 mps 758 mmHg 80%
    20:00 +19°C° 0 mm 3 mps 758 mmHg 80%
    21:00 +19°C° 0 mm 3 mps 759 mmHg 81%
    22:00 +18°C° 0 mm 2 mps 759 mmHg 81%
    23:00 +18°C° 0 mm 2 mps 759 mmHg 81%

    25 July, Thursday

    Time Temperature Precipitation Wind Pressure Humidity
    00:00 +18°C° 0 mm 2 mps 759 mmHg 82%
    01:00 +17°C° 0 mm 2 mps 759 mmHg 82%
    02:00 +17°C° 0 mm 2 mps 759 mmHg 84%
    03:00 +16°C° 0 mm 2 mps 759 mmHg 86%
    04:00 +16°C° 0 mm 2 mps 759 mmHg 88%
    05:00 +16°C° 0 mm 2 mps 759 mmHg 88%
    06:00 +16°C° 0 mm 1 mps 759 mmHg 88%
    07:00 +16°C° 0 mm 1 mps 759 mmHg 88%
    08:00 +19°C° 0 mm 1 mps 760 mmHg 77%
    09:00 +22°C° 0 mm 1 mps 760 mmHg 66%
    10:00 +25°C° 0 mm 2 mps 760 mmHg 55%
    11:00 +25°C° 0 mm 3 mps 760 mmHg 54%
    12:00 +26°C° 0 mm 3 mps 759 mmHg 54%
    13:00 +26°C° 0 mm 4 mps 759 mmHg 53%
    14:00 +25°C° 0 mm 4 mps 758 mmHg 56%
    15:00 +25°C° 0 mm 4 mps 758 mmHg 59%
    16:00 +23°C° 0 mm 4 mps 758 mmHg 62%
    17:00 +21°C° 0 mm 4 mps 758 mmHg 70%
    18:00 +20°C° 0 mm 3 mps 759 mmHg 79%
    19:00 +18°C° 0 mm 2 mps 759 mmHg 88%
    20:00 +18°C° 0 mm 2 mps 760 mmHg 88%
    21:00 +18°C° 0 mm 2 mps 760 mmHg 89%
    22:00 +17°C° 0 mm 2 mps 760 mmHg 90%
    23:00 +17°C° 0 mm 2 mps 760 mmHg 90%

    26 July, Friday

    Time Temperature Precipitation Wind Pressure Humidity
    00:00 +17°C° 0 mm 2 mps 760 mmHg 89%
    01:00 +16°C° 0 mm 1 mps 759 mmHg 89%
    02:00 +16°C° 0 mm 1 mps 759 mmHg 90%
    03:00 +16°C° 0 mm 1 mps 759 mmHg 91%
    04:00 +15°C° 0 mm 1 mps 759 mmHg 91%
    05:00 +15°C° 0 mm 1 mps 759 mmHg 91%
    06:00 +15°C° 0 mm 1 mps 759 mmHg 91%
    07:00 +16°C° 0 mm 1 mps 759 mmHg 91%
    08:00 +20°C° 0 mm 1 mps 759 mmHg 77%
    09:00 +23°C° 0 mm 1 mps 760 mmHg 63%
    10:00 +26°C° 0 mm 1 mps 760 mmHg 49%
    11:00 +26°C° 0 mm 2 mps 759 mmHg 50%
    12:00 +27°C° 0 mm 3 mps 758 mmHg 51%
    13:00 +27°C° 0 mm 4 mps 757 mmHg 52%
    14:00 +26°C° 0 mm 4 mps 757 mmHg 56%
    15:00 +25°C° 0 mm 4 mps 757 mmHg 59%
    16:00 +23°C° 0 mm 5 mps 757 mmHg 63%
    17:00 +22°C° 0 mm 4 mps 757 mmHg 72%
    18:00 +20°C° 0 mm 3 mps 758 mmHg 80%
    19:00 +18°C° 0 mm 2 mps 758 mmHg 89%
    20:00 +19°C° 0 mm 1 mps 759 mmHg 90%
    21:00 +19°C° 0 mm 1 mps 759 mmHg 91%
    22:00 +16°C° 0 mm 0 mps 760 mmHg 92%
    23:00 +16°C° 0 mm 0 mps 760 mmHg 92%

    27 July, Saturday

    Time Temperature Precipitation Wind Pressure Humidity
    00:00 +15°C° 0 mm 0 mps 760 mmHg 91%
    01:00 +15°C° 0 mm 0 mps 759 mmHg 91%
    02:00 +15°C° 0 mm 0 mps 759 mmHg 92%
    03:00 +15°C° 0 mm 0 mps 759 mmHg 93%
    04:00 +15°C° 0 mm 0 mps 759 mmHg 94%
    05:00 +16°C° 0 mm 1 mps 759 mmHg 94%
    06:00 +16°C° 0 mm 1 mps 759 mmHg 95%
    07:00 +16°C° 0 mm 1 mps 760 mmHg 96%
    08:00 +18°C° 0 mm 2 mps 760 mmHg 88%
    09:00 +20°C° 0 mm 2 mps 760 mmHg 80%
    10:00 +22°C° 0 mm 3 mps 760 mmHg 72%
    11:00 +24°C° 0 mm 3 mps 759 mmHg 69%
    12:00 +25°C° 0 mm 4 mps 759 mmHg 65%
    13:00 +26°C° 0 mm 4 mps 758 mmHg 61%
    14:00 +25°C° 0 mm 4 mps 758 mmHg 64%
    15:00 +23°C° 0 mm 5 mps 758 mmHg 68%
    16:00 +23°C° 0 mm 5 mps 757 mmHg 71%
    17:00 +22°C° 0 mm 4 mps 758 mmHg 75%
    18:00 +21°C° 0 mm 3 mps 759 mmHg 78%
    19:00 +21°C° 0 mm 2 mps 759 mmHg 81%
    20:00 +22°C° 0 mm 1 mps 760 mmHg 81%
    21:00 +21°C° 0 mm 1 mps 760 mmHg 80%
    22:00 +19°C° 0 mm 0 mps 760 mmHg 80%
    23:00 +21°C° 0 mm 1 mps 760 mmHg 83%
    Show more